• Join FlightAware (Why Join?)
  • Login
  • US Flag GB Flag 
07:23 EDT


 

Airport Tracker/Info


-or-


 

Live Flight TrackerFlight Track Log ✈ SWA1017 ✈ 26-Apr-2013 ✈ KAUS - KDAL

Flight Track Log - Related Links

Times and Time Zones

All times are in EDT time to prevent confusion due to time zone crossing. See the SWA1017 flight status page for this flight to view local times or setup timezone preferences in your user account.

Time Position Orientation Groundspeed Altitude Reporting Facility
EDT Latitude Longitude Course Direction KTS MPH feet Rate Location/Type
16:54 30.1378 -97.5497 41° Northeast 246 283 6,000  Level Houston Center
16:55 30.1911 -97.4806 48° Northeast 305 351 7,000 780 Climbing Houston Center
16:56 30.2728 -97.4478 19° North 307 353 7,700 2,280 Climbing Houston Center
16:57 30.3475 -97.4092 24° Northeast 294 338 11,800 2,940 Climbing Houston Center
16:58 30.5752 -97.2748 41° Northeast  Level FlightAware Approximate
16:58 30.4353 -97.3650 23° Northeast 339 390 13,800  Level Houston Center
16:59 30.6339 -97.1994 41° Northeast  Level FlightAware Approximate
16:59 30.5333 -97.3156 23° Northeast 377 434 16,800  Level Houston Center
17:00 30.6336 -97.2244 38° Northeast 391 450 21,100 2,460 Climbing Houston Center
17:01 30.7106 -97.1333 46° Northeast 393 452 22,000 420 Climbing Houston Center
17:02 30.7894 -97.0378 46° Northeast 407 468 22,000  Level Houston Center
17:03 30.8675 -96.9428 46° Northeast 408 470 22,000  Level Houston Center
17:04 30.9503 -96.8450 45° Northeast 421 484 22,000  Level Houston Center
17:05 31.0442 -96.7317 46° Northeast 416 479 22,000  Level Houston Center
17:06 31.1267 -96.6361 45° Northeast 417 480 22,000  Level Houston Center
17:07 31.2072 -96.5364 47° Northeast 417 480 22,000  Level Houston Center
17:08 31.2886 -96.4372 46° Northeast 419 482 22,000  Level Houston Center
17:09 31.3697 -96.3392 46° Northeast 417 480 22,000  Level Houston Center
17:10 31.4764 -96.3033 16° North 404 465 22,000  Level Houston Center
17:11 31.5878 -96.3125 356° North 397 457 22,000  Level Houston Center
17:12 31.7264 -96.3242 356° North 389 448 22,000 -780 Level Fort Worth Center
17:13 31.8411 -96.3275 359° North 396 456 20,400 -1,800 Descending Fort Worth Center
17:14 31.9500 -96.3361 356° North 401 461 18,500 -2,040 Descending Fort Worth Center
17:15 32.0564 -96.3447 356° North 391 450 16,400 -2,400 Descending Fort Worth Center
17:16 32.1631 -96.3533 356° North 384 442 13,700 -2,280 Descending Fort Worth Center
17:17 32.2592 -96.3594 357° North 384 442 11,900 -1,920 Descending Fort Worth Center
17:18 32.3697 -96.3681 356° North 374 430 9,900 -1,500 Descending Fort Worth Center
17:19 32.4492 -96.3769 355° North 334 384 8,900 -1,440 Descending Fort Worth Center
17:20 32.5269 -96.4253 332° Northwest 289 333 7,100 -1,740 Descending Fort Worth Center
17:21 32.5919 -96.4667 332° Northwest 289 333 5,500 -1,080 Descending Fort Worth Center
17:22 32.6714 -96.5125 334° Northwest 289 333 5,000 -300 Descending Fort Worth Center
17:23 32.7261 -96.5542 327° Northwest 271 312 5,000  Level Fort Worth Center
17:24 32.7850 -96.6053 324° Northwest 247 284 5,000  Level Fort Worth Center
17:25 32.8353 -96.6494 324° Northwest 242 278 5,000 -420 Level Fort Worth Center
17:26 32.8833 -96.7000 319° Northwest 240 276 4,300 -600 Descending Dallas / Fort Worth TRACON
17:27 32.9167 -96.7500 308° West 235 270 4,000 -480 Descending Dallas / Fort Worth TRACON
17:28 32.9667 -96.8000 320° Northwest 206 237 3,400 -540 Descending Dallas / Fort Worth TRACON
17:29 32.9833 -96.8667 287° West 181 208 3,000 -600 Descending Dallas / Fort Worth TRACON
17:30 32.9667 -96.9000 239° Southwest 164 189 2,200 -540 Descending Dallas / Fort Worth TRACON
17:31 32.9333 -96.9333 220° Southwest 155 178 2,000 -300 Descending Dallas / Fort Worth TRACON
17:32 32.9000 -96.9000 140° Southeast 142 163 1,600 -540 Descending Dallas / Fort Worth TRACON
17:33 32.8667 -96.8833 157° South 126 145 1,000 -600 Descending Dallas / Fort Worth TRACON
17:35 32.8471 -96.8518 154° Southeast  Level Estimated
17:42 32.8471 -96.8518 154° Southeast  Level Estimated